Flag for U.S.A. Weather past 2 weeks in Unalaska, Alaska, U.S.A.

Now
44 °F

Broken clouds.


Feels Like: 38 °F
Forecast: 40 / 44 °F
Wind: 12 mph from North

Location: Dutch Harbor

Current Time: May 6, 2015 at 2:38:42 PM

Latest Report: May 6, 2015 at 1:56 PM


Visibility: 10 mi

Pressure: 29.84 "Hg

Humidity: 79%

Dew point: 38 °F

Location of UnalaskaLocation

Historic Weather in Unalaska — Graph

°F

Unalaska temperature yesterday

Maximum temperature yesterday: 46 °F (at 2:56 PM)
Minimum temperature yesterday: 41 °F (at 1:56 AM)
Average temperature yesterday: 43 °F

Past Weeks' High & Low Weather Summary

 TemperatureHumidityPressure
High46 °F (May 4, 5:56 PM)89% (Apr 24, 8:56 PM)30.20 "Hg (Apr 24, 8:56 PM)
Low34 °F (Apr 21, 2:56 PM)60% (Apr 21, 12:56 PM)29.22 "Hg (Apr 28, 3:56 PM)
Average40 °F75%29.77 "Hg
* Reported Apr 21 12:56 PM — May 6 12:56 PM, Unalaska, Weather by CustomWeather, © 2015

Note: Actual official high and low records may vary slightly from our data, if they occured in-between our weather recording intervals... More about our weather records

Advertising

Unalaska weather history for previous 24 hours

 ConditionsComfort  
Time TempWeatherWind HumidityBarometerVisibility
12:56 PM
Wed, May 6
44 °FPartly sunny.No wind79%29.83 "Hg10 mi
11:56 AM43 °FPartly sunny.6 mph79%29.84 "Hg10 mi
10:56 AM43 °FMostly cloudy.3 mph79%29.84 "Hg10 mi
9:56 AM43 °FCloudy.No wind79%29.83 "Hg10 mi
8:56 AM42 °FOvercast.7 mph82%29.83 "Hg10 mi
7:56 AM42 °FMostly cloudy.8 mph82%29.82 "Hg10 mi
6:56 AM42 °FMostly cloudy.9 mph82%29.80 "Hg10 mi
5:56 AM42 °FOvercast.No wind79%29.81 "Hg10 mi
4:56 AM42 °FOvercast.9 mph79%29.80 "Hg10 mi
3:56 AM42 °FOvercast.8 mph79%29.80 "Hg10 mi
2:56 AM40 °FOvercast.5 mph86%29.81 "Hg10 mi
1:56 AM42 °FOvercast.8 mph79%29.81 "Hg10 mi
12:56 AM42 °FMostly cloudy.No wind82%29.81 "Hg10 mi
11:56 PM
Tue, May 5
43 °FMostly cloudy.5 mph79%29.81 "Hg10 mi
10:56 PM43 °FCloudy.7 mph76%29.80 "Hg8 mi
9:56 PM43 °FMostly cloudy.9 mph76%29.79 "Hg10 mi
8:56 PM44 °FBroken clouds.17 mph73%29.77 "Hg10 mi
7:56 PM44 °FLight rain. Broken clouds.16 mph76%29.76 "Hg10 mi
6:56 PM45 °FBroken clouds.14 mph76%29.76 "Hg10 mi
5:56 PM45 °FLight rain. Broken clouds.15 mph80%29.75 "Hg10 mi
4:56 PM46 °FBroken clouds.15 mph73%29.75 "Hg10 mi
3:56 PM45 °FLight rain. Broken clouds.18 mph74%29.75 "Hg10 mi
2:56 PM46 °FBroken clouds.15 mph68%29.74 "Hg10 mi
Weather by CustomWeather, © 2015

See weather overviewHow to use our weather pages